Regional Weather Roundup
Issued by NWS

Home | Current Version | Previous Version | Graphics & Text | Print | Product List | Glossary On
Versions: 1 2 3 4 5 6 7 8 9 10 11 12 13 14 15 16 17 18 19 20 21 22 23 24 25 26 27 28 29 30 31 32 33 34 35 36 37 38 39 40 41 42 43 44 45 46 47 48 49 50
038
ASUS43 KMKX 191710
RWRWI

WISCONSIN REGIONAL WEATHER ROUNDUP
NATIONAL WEATHER SERVICE MILWAUKEE/SULLIVAN WI
1100 AM CST SUN NOV 19 2017

NOTE: "FAIR" INDICATES FEW OR NO CLOUDS BELOW 12,000 FEET WITH NO
SIGNIFICANT WEATHER AND/OR OBSTRUCTIONS TO VISIBILITY.

WIZ001-002-006>008-014>016-023>028-191800-
NORTHWEST WISCONSIN

CITY           SKY/WX    TMP DP  RH WIND       PRES   REMARKS
SUPERIOR ARPT  CLOUDY    20  10  62 W10       30.00F WCI   9
ASHLAND        PTSUNNY   21   9  59 W12       29.97F WCI   9
HAYWARD        CLOUDY    21   7  54 SW7       29.97F WCI  12
SIREN          CLOUDY    23  11  60 W9        30.01F WCI  13
CUMBERLAND     SUNNY     25  10  54 W9        30.00F WCI  15
RICE LAKE      SUNNY     24  11  56 W9        30.03F WCI  14
CHETEK         SUNNY     26  10  51 W5        30.02F WCI  20
LADYSMITH      CLOUDY    24  11  60 W6        30.00F WCI  16
EAU CLAIRE     SUNNY     25   9  50 W7        30.03F WCI  17
MENOMONIE      SUNNY     28  11  48 SW8       30.05F WCI  20
NEW RICHMOND   SUNNY     28  10  47 W8        30.03F WCI  20
OSCEOLA        SUNNY     28  12  50 SW6       30.06F WCI  22
$$

WIZ003>005-009-010-017-018-191800-
NORTH CENTRAL WISCONSIN

CITY           SKY/WX    TMP DP  RH WIND       PRES   REMARKS
MANITOWISH WTR PTSUNNY   17  12  78 W7        29.91F WCI   8
ARBOR VITAE    MOSUNNY   19  13  77 W7        29.92S WCI  10
WOODRUFF       MOSUNNY   19  13  77 W7        29.92S WCI  10
RHINELANDER    MOSUNNY  N/A N/A N/A NW13G21   29.93S
EAGLE RIVER    FLURRIES  16   9  72 W10       29.90F WCI   4
LAND O LAKES   LGT SNOW  17  12  81 W7        29.92R WCI   7
PHILLIPS       SUNNY     20   9  62 W7        29.94F WCI  11
TOMAHAWK       SUNNY     21   9  59 W9        29.95F WCI  10
MEDFORD        SUNNY     22  10  58 W10       29.96F WCI  11
MERRILL        SUNNY     23   9  55 W9        29.97F WCI  13
$$

WIZ029-030-035-036-043>047-191800-
CENTRAL WISCONSIN

CITY           SKY/WX    TMP DP  RH WIND       PRES   REMARKS
WAUSAU         SUNNY     23   9  55 W14       29.96F WCI  11
MOSINEE        MOSUNNY   23  10  58 W14G20    29.99R WCI  11
MARSHFIELD     SUNNY     23   9  55 W13       29.99S WCI  11
STEVENS POINT  SUNNY     22   8  53 W10G18    30.01S WCI  12
WAUPACA        SUNNY     29  12  49 W12G17    30.01S WCI  19
WAUTOMA        SUNNY     26  12  55 W18       30.03S WCI  13
WISC RAPIDS    SUNNY     25  10  53 NW14      30.03S WCI  13
CAMP DOUGLAS   MOSUNNY   27  10  50 W9        30.06F WCI  17
$$

WIZ011>013-019>022-031-037>040-048>050-191800-
NORTHEAST WISCONSIN

CITY           SKY/WX    TMP DP  RH WIND       PRES   REMARKS
ANTIGO         MOSUNNY   21  11  63 NW12G23   29.93F WCI   9
SHAWANO        SUNNY     29  12  50 W8        29.97S WCI  21
OCONTO         PTSUNNY   26  12  55 W13       29.96F WCI  15
STURGEON BAY   CLOUDY    25  13  60 NW14G20   29.95S WCI  13
GREEN BAY      SUNNY     27  15  61 NW16      29.98R WCI  15
MANITOWOC      SUNNY     27  14  58 W15       29.98S WCI  15
APPLETON       MOSUNNY   27  10  50 NW15G21   29.97R WCI  15
CLINTONVILLE   SUNNY     28   9  43 NW13      29.98S WCI  18
OSHKOSH        SUNNY     27  14  58 W15G21    29.99R WCI  15
$$

WIZ032>034-041-042-053>061-191800-
SOUTHWEST WISCONSIN

CITY           SKY/WX    TMP DP  RH WIND       PRES   REMARKS
LA CROSSE      MOSUNNY   28  11  48 W5        30.09F WCI  23
SPARTA         SUNNY     27  12  52 W7        30.07F WCI  20
VIROQUA        MOSUNNY   26  15  63 W7        30.06S WCI  18
BOSCOBEL       SUNNY     30  11  45 W7        30.11F WCI  23
PRAIRIE DU CHI MOSUNNY   30   9  42 W9        30.12S WCI  22
PLATTEVILLE    SUNNY     28  15  58 W12       30.10F WCI  18
$$

WIZ056-057-062-063-064-067-068-191800-
SOUTH CENTRAL WISCONSIN

CITY           SKY/WX    TMP DP  RH WIND       PRES   REMARKS
REEDSBURG      SUNNY     27  11  50 W12       30.06S WCI  17
BARABOO/DELLS  SUNNY     27  11  50 W12G17    30.05S WCI  16
LONE ROCK      SUNNY     29  13  51 W15       30.09F WCI  18
MINERAL POINT  SUNNY     30  18  59 NW9G21    30.07F WCI  22
MADISON        SUNNY     26  12  55 NW13G21   30.06R WCI  15
MIDDLETON      SUNNY     30  14  51 W10       30.06S WCI  21
WATERTOWN      SUNNY     27  15  60 W10G21    30.03S WCI  17
MONROE         SUNNY     28  12  50 NW13G23   30.07R WCI  18
JANESVILLE     MOSUNNY   30  18  59 NW14G20   30.06R WCI  20
$$

WIZ051-052-058>065-066-070>072-191800-
SOUTHEAST WISCONSIN

CITY           SKY/WX    TMP DP  RH WIND       PRES   REMARKS
MILWAUKEE      MOSUNNY   31  16  54 NW15      30.00F WCI  20
WAUKESHA       MOSUNNY   27  16  63 W14G20    30.01S WCI  15
MILWAUKEE/TIMM MOSUNNY   28  12  50 W16G22    30.01S WCI  17
RACINE         SUNNY     30  17  58 NW14G23   30.02S WCI  19
BURLINGTON     SUNNY     32  22  66 NW16      30.03R WCI  21
KENOSHA        MOSUNNY   31  18  58 W14G22    30.02S WCI  21
FOND DU LAC    SUNNY     28  13  53 W16       30.00R WCI  16
SHEBOYGAN      MOSUNNY   28  16  60 NW13G28   29.98S WCI  17
WEST BEND      SUNNY     28  16  59 W12       29.99S WCI  18
JUNEAU         SUNNY     26  14  61 W8G17     30.03S WCI  17
$$

LSZ147-162-191800-
LAKE SUPERIOR

STATION/POSITION TIME  TEMP    WIND        PRES    WAVE
                       AIR SEA DIR/SP/G            HT/PER
                 (UTC) (F)     (DEG/KT/KT) (MB)    (FT/S)
DEVILS ISLAND    1700   22     250/ 17/ 21 1015.3F
SAXON HARBOR     1640   21     260/  7/ 11 1014.9F
$$

LMZ867-665-643>646-191800-
LAKE MICHIGAN

STATION/POSITION TIME  TEMP    WIND        PRES    WAVE
                       AIR SEA DIR/SP/G            HT/PER
                 (UTC) (F)     (DEG/KT/KT) (MB)    (FT/S)
N MID LAKE BUOY  1650   28 48  310/ 17/ 23 1013.1R   4/ 5
NORTHPORT PIER   1640   26     300/  9/ 19 1013.2R
KEWAUNEE LAKESHO 1648   27     320/ 11/ 15 1013.7R
SHEBOYGAN LAKESH 1700   27     280/ 15/ 19 1015.8F
PORT WASHINGTON  1640   28     290/ 10/ 17 1016.9R
MILWAUKEE LAKESH 1650   27     280/ 14/ 17   N/A
S MID LAKE BUOY  1650   31 49  320/ 17/ 23 1016.2R   5/ 7
KENOSHA   LAKESH 1700   29     270/ 16/ 19 1016.6
$$

TC  - TEMPERATURE IN CELSIUS
VSB - VISIBILITY IN STATUTE MILES
WCI - WIND CHILL INDEX
HX  - HEAT INDEX





USA.gov is the U.S. government's official web portal to all federal, state and local government web resources and services.